[[{"header":{"parameterUnit":"m.s-1","parameterCategory":1,"la1":30.2991,"la2":30.254,"lo1":-89.0895,"lo2":-89.0444,"dy":0.0017,"dx":0.0017,"nx":28,"ny":28,"refTime":"2024-12-04T09:00:00:Z","depth":0,"parameterNumber":2,"parameterNumberName":"U-component_of_WINDS"},"data":[0,0,0,0,0,0,0,0,0,0,0,0,0,0,0,0,0,0,0,0,0,0,0,0,0,0,0,0,0,0,0,0,0,0,0,0,0,0,0,0,0,0,0,0,0,0,0,0,0,0,0,0,0,0,0,0,0,0,-1.0592,-1.0591,0,-1.0488,-1.0487,-1.0486,-1.0447,-1.0447,-1.0448,-1.0448,-1.0341,-1.0338,-1.0335,0,0,0,0,0,0,0,0,0,0,0,0,0,-1.0759,-1.0756,-1.0592,-1.0591,-1.059,-1.0488,-1.0487,-1.0485,-1.0447,-1.0447,-1.0448,-1.0448,-1.0342,-1.0339,-1.0335,0,0,0,0,0,0,0,0,0,0,0,0,0,-1.0674,-1.0755,-1.0592,-1.0558,-1.0554,-1.0488,-1.0487,-1.0485,-1.0447,-1.0447,-1.0448,-1.0448,-1.0343,-1.0339,-1.0334,-1.0295,0,0,-1.032,-1.0318,0,0,0,0,0,0,0,0,-1.0679,-1.0668,-1.0565,-1.0561,-1.0556,-1.0481,-1.0506,-1.0421,-1.0447,-1.0488,-1.0448,-1.0449,-1.0387,-1.0379,-1.0358,-1.029,-1.0285,-1.0319,-1.0316,-1.0314,-1.0313,0,0,0,0,0,0,0,-1.0685,-1.0672,-1.0551,-1.0563,-1.0558,-1.0548,-1.0537,-1.049,-1.0436,-1.0484,-1.0481,-1.0469,-1.0385,-1.0363,-1.0356,-1.0284,-1.0319,-1.0315,-1.0312,-1.031,-1.0178,-1.0177,0,0,0,0,0,0,-1.0696,-1.0677,-1.0554,-1.0548,-1.062,-1.0545,-1.0532,-1.0505,-1.0436,-1.0426,-1.0469,-1.0468,-1.0371,-1.0361,-1.0352,-1.0301,-1.0314,-1.031,-1.0307,-1.0179,-1.0178,-1.0177,0,0,0,0,0,0,-1.07,-1.0686,-1.0558,-1.0612,-1.0595,-1.0542,-1.0511,-1.0502,-1.048,-1.0425,-1.0415,-1.0456,-1.0371,-1.0358,-1.0309,-1.0297,-1.0308,-1.0304,-1.0179,-1.0178,-1.0177,-1.0199,0,0,0,0,0,0,-1.0705,-1.0687,-1.0671,-1.0612,-1.0592,-1.0518,-1.051,-1.05,-1.0472,-1.047,-1.041,-1.0401,-1.037,-1.0317,-1.0305,-1.029,-1.03,-1.018,-1.0179,-1.0178,-1.0199,-1.0199,-1.0199,0,0,0,0,0,-1.0711,-1.0681,-1.0671,-1.0656,-1.0571,-1.0517,-1.0506,-1.0471,-1.0471,-1.0455,-1.042,-1.0403,-1.03,-1.0312,-1.0298,-1.0282,-1.0181,-1.0179,-1.0178,-1.0199,-1.0199,-1.0199,0,0,0,0,0,0,-1.0741,-1.0673,-1.066,-1.061,-1.057,-1.0511,-1.0489,-1.0472,-1.043,-1.043,-1.0388,-1.0375,-1.033,-1.0301,-1.0315,-1.0241,-1.0239,-1.0235,-1.0261,-1.026,-1.026,-1.0267,-1.0296,0,0,0,0,0,-1.0742,-1.0703,-1.0646,-1.0608,-1.0588,-1.0542,-1.0517,-1.0494,-1.045,-1.0433,-1.0394,-1.0352,-1.031,-1.0284,-1.0242,-1.0196,-1.0182,-1.0178,-1.0178,-1.0178,-1.0174,-1.0147,-1.0145,-1.0172,-1.0172,-1.0172,0,0,-1.0743,-1.0701,-1.0679,-1.0613,-1.0578,-1.054,-1.0528,-1.0487,-1.0458,-1.0427,-1.0378,-1.0348,-1.0299,-1.0251,-1.0228,-1.0226,-1.0164,-1.0176,-1.0176,-1.0172,-1.0146,-1.0143,-1.0141,-1.0171,-1.0171,-1.0171,0,0,-1.0725,-1.069,-1.0654,-1.062,-1.0568,-1.0538,-1.053,-1.0473,-1.0452,-1.0403,-1.0379,-1.0344,-1.0273,-1.0239,-1.0212,-1.0183,-1.0166,-1.0171,-1.0169,-1.0144,-1.0142,-1.0139,-1.0129,-1.0125,-1.0168,-1.0168,-1.0168,0,-1.0733,-1.0673,-1.0638,-1.0598,-1.057,-1.054,-1.0504,-1.0473,-1.0411,-1.0392,-1.0391,-1.0301,-1.0266,-1.021,-1.0203,-1.0183,-1.0172,-1.0177,-1.0145,-1.0142,-1.014,-1.0129,-1.0125,-1.0169,-1.0169,-1.0169,-1.0169,0,-1.0685,-1.0645,-1.0622,-1.0563,-1.0532,-1.0494,-1.0454,-1.0427,-1.0407,-1.0377,-1.0328,-1.0285,-1.0234,-1.0219,-1.0199,-1.016,-1.0161,-1.0153,-1.015,-1.0139,-1.0128,-1.0124,-1.017,-1.017,-1.017,-1.0169,0,0,-1.0682,-1.0604,-1.0596,-1.0569,-1.0511,-1.0479,-1.0441,-1.0392,-1.0369,-1.0328,-1.0295,-1.0236,-1.0229,-1.0199,-1.0175,-1.0153,-1.0132,-1.0147,-1.0145,-1.0145,-1.0087,-1.0092,-1.0088,-1.0121,-1.012,-1.012,-1.009,0,-1.0656,-1.0585,-1.0553,-1.0497,-1.0459,-1.0431,-1.0398,-1.0359,-1.033,-1.0294,-1.0263,-1.0222,-1.0215,-1.0197,-1.0174,-1.014,-1.012,-1.0141,-1.009,-1.0088,-1.0102,-1.0082,-1.0088,-1.0063,-1.0086,-1.0085,-1.0085,0,-1.0615,-1.0574,-1.0515,-1.0461,-1.0444,-1.0415,-1.0367,-1.0333,-1.0289,-1.027,-1.0237,-1.0214,-1.0173,-1.0175,-1.0118,-1.0134,-1.0111,-1.0091,-1.0089,-1.0082,-1.0085,-1.0074,-1.0054,-1.005,-1.0078,-1.0079,-1.0079,0,-1.0618,-1.0548,-1.0503,-1.0481,-1.0418,-1.0398,-1.0371,-1.0327,-1.03,-1.0259,-1.0241,-1.0196,-1.0171,-1.0136,-1.0102,-1.0107,-1.0049,-1.0048,-1.0031,-1.0032,-1.0019,-1.002,-0.9994,-1.0006,-1.0006,-1.0006,-1.0007,0,-1.0592,-1.0557,-1.0504,-1.0476,-1.0436,-1.0399,-1.0361,-1.0332,-1.0293,-1.0259,-1.0233,-1.0202,-1.016,-1.0124,-1.0097,-1.0054,-1.0043,-1.0026,-1.0019,-1.0028,-1.003,-1.0012,-1.0012,-1.0005,-1.0006,-1.0006,-1.0006,0,-1.0588,-1.0551,-1.05,-1.0445,-1.0431,-1.0403,-1.0356,-1.0329,-1.03,-1.0258,-1.0246,-1.02,-1.0157,-1.012,-1.0062,-1.0044,-0.9999,-0.9992,-1.0014,-1.001,-0.9996,-0.9998,-0.9956,-0.9949,-0.9967,-0.9967,-0.9967,0,-1.0573,-1.0545,-1.0487,-1.0463,-1.0436,-1.0397,-1.037,-1.0333,-1.0306,-1.0253,-1.0232,-1.0187,-1.0148,-1.008,-1.0042,-0.9998,-0.9988,-0.9977,-0.9981,-0.9991,-0.9987,-0.9989,-0.9986,-0.9976,-0.9976,-0.9976,-0.9976,0,-1.055,-1.0534,-1.0495,-1.045,-1.0417,-1.038,-1.0342,-1.0324,-1.028,-1.0251,-1.0206,-1.0176,-1.0118,-1.0073,-1.0025,-0.9998,-0.998,-0.9975,-0.9969,-0.9977,-0.9991,-0.9983,-1.0013,-0.9976,-0.9976,-0.9976,-0.9976,-0.9976,-1.054,-1.0514,-1.0469,-1.0427,-1.0395,-1.036,-1.0331,-1.0299,-1.0261,-1.0211,-1.0192,-1.0146,-1.0103,-1.0037,-1.0009,-0.9973,-0.9971,-0.9962,-0.9959,-0.9957,-0.9959,-0.9998,-0.9964,-0.9964,-0.9964,-0.9964,-0.9964,0,-1.0515,-1.0486,-1.0447,-1.0395,-1.0362,-1.0349,-1.0306,-1.0279,-1.0239,-1.0201,-1.0164,-1.0113,-1.0069,-1.0028,-0.9983,-0.9962,-0.9953,-0.9951,-0.9952,-0.9946,-0.9964,-0.9973,-0.996,-0.996,-0.996,-0.996,-0.996,-0.996,-1.0499,-1.0454,-1.0433,-1.0372,-1.0342,-1.0297,-1.0274,-1.0242,-1.0211,-1.0155,-1.0119,-1.0093,-1.0054,-1.0006,-0.9965,-0.9955,-0.9939,-0.994,-0.9926,-0.9944,-0.9945,-0.9945,-0.9954,-0.9937,-0.9937,-0.9911,-0.9911,-0.9911]},{"header":{"parameterUnit":"m.s-1","parameterCategory":1,"la1":30.2991,"la2":30.254,"lo1":-89.0895,"lo2":-89.0444,"dy":0.0017,"dx":0.0017,"nx":28,"ny":28,"refTime":"2024-12-04T09:00:00:Z","depth":0,"parameterNumber":3,"parameterNumberName":"V-component_of_WINDS"},"data":[0,0,0,0,0,0,0,0,0,0,0,0,0,0,0,0,0,0,0,0,0,0,0,0,0,0,0,0,0,0,0,0,0,0,0,0,0,0,0,0,0,0,0,0,0,0,0,0,0,0,0,0,0,0,0,0,0,0,1.174,1.174,0,1.1767,1.1768,1.1768,1.1703,1.1701,1.1699,1.1697,1.1725,1.1728,1.173,0,0,0,0,0,0,0,0,0,0,0,0,0,1.1631,1.1633,1.174,1.174,1.174,1.1767,1.1768,1.1768,1.1704,1.1701,1.1699,1.1696,1.1724,1.1728,1.1731,0,0,0,0,0,0,0,0,0,0,0,0,0,1.167,1.1634,1.174,1.1711,1.1709,1.1767,1.1768,1.1768,1.1704,1.1701,1.1698,1.1695,1.1723,1.1727,1.1731,1.1818,0,0,1.1743,1.1745,0,0,0,0,0,0,0,0,1.1668,1.1674,1.1715,1.1713,1.1711,1.1729,1.1739,1.1785,1.1705,1.1706,1.1697,1.1694,1.1729,1.1732,1.1744,1.1819,1.182,1.1744,1.1746,1.1748,1.1749,0,0,0,0,0,0,0,1.1665,1.1673,1.175,1.1716,1.1713,1.1697,1.17,1.1748,1.1734,1.1706,1.1701,1.1705,1.1727,1.174,1.1744,1.182,1.1744,1.1747,1.175,1.1751,1.1968,1.1971,0,0,0,0,0,0,1.1666,1.1671,1.175,1.1751,1.1681,1.1702,1.1704,1.1726,1.1734,1.1732,1.1708,1.1702,1.1735,1.174,1.1745,1.1847,1.1748,1.1752,1.1754,1.1964,1.1969,1.1972,0,0,0,0,0,0,1.1664,1.1674,1.1748,1.171,1.1718,1.1707,1.1732,1.1728,1.1742,1.1735,1.1733,1.1724,1.1733,1.1739,1.18,1.1847,1.1753,1.1757,1.196,1.1966,1.197,1.2052,0,0,0,0,0,0,1.1661,1.1673,1.1706,1.1711,1.172,1.1804,1.1735,1.1731,1.1749,1.1742,1.175,1.1748,1.1731,1.1795,1.1804,1.1851,1.176,1.1956,1.1963,1.1969,1.2045,1.2059,1.2071,0,0,0,0,0,1.1658,1.1728,1.1708,1.1718,1.1761,1.1806,1.1812,1.1791,1.1753,1.1786,1.1782,1.1748,1.184,1.1801,1.1812,1.186,1.1953,1.1961,1.1968,1.2039,1.2056,1.2071,0,0,0,0,0,0,1.1729,1.1728,1.1706,1.178,1.1794,1.1795,1.1836,1.1809,1.1834,1.1826,1.1799,1.1801,1.1867,1.187,1.1826,1.1945,1.189,1.19,1.1941,1.1957,1.197,1.1968,1.1763,0,0,0,0,0,1.1753,1.179,1.1787,1.1853,1.1861,1.1848,1.1866,1.1849,1.1862,1.1867,1.1868,1.1881,1.1913,1.1935,1.1964,1.2045,1.2046,1.2083,1.2097,1.2107,1.2116,1.216,1.2176,1.1997,1.1997,1.1997,0,0,1.1804,1.1808,1.1833,1.1867,1.1876,1.1915,1.1853,1.1896,1.1925,1.1874,1.1931,1.1932,1.1946,1.2017,1.2048,1.2021,1.2166,1.2117,1.2126,1.2129,1.2169,1.2186,1.2201,1.2002,1.2001,1.2,0,0,1.1916,1.1923,1.1979,1.1988,1.2002,1.1993,1.2006,1.2012,1.2011,1.2068,1.2031,1.2064,1.212,1.2131,1.2144,1.2261,1.2231,1.2271,1.234,1.2382,1.2397,1.2409,1.2451,1.2467,1.228,1.228,1.2281,0,1.1978,1.2035,1.2011,1.2057,1.2073,1.2029,1.2085,1.2096,1.2118,1.2131,1.21,1.2169,1.2175,1.2248,1.2277,1.2289,1.2304,1.227,1.2396,1.2409,1.242,1.246,1.2476,1.2285,1.2285,1.2284,1.2284,0,1.211,1.215,1.2193,1.2216,1.2237,1.2288,1.2272,1.2296,1.2277,1.2271,1.233,1.2336,1.2366,1.2381,1.2363,1.2453,1.2435,1.2401,1.2346,1.2442,1.2479,1.2494,1.2292,1.229,1.2289,1.2288,0,0,1.2268,1.2277,1.2294,1.2304,1.2316,1.2346,1.2395,1.2425,1.2446,1.2463,1.2504,1.2552,1.2521,1.2536,1.2518,1.2555,1.2648,1.2516,1.2516,1.2541,1.2748,1.2774,1.2792,1.2628,1.2631,1.2633,1.2747,0,1.2379,1.2464,1.2444,1.2528,1.2565,1.2523,1.2566,1.2578,1.2574,1.2604,1.2599,1.2634,1.2589,1.2598,1.2633,1.2629,1.2689,1.2621,1.2666,1.2668,1.2665,1.2811,1.2839,1.2946,1.2761,1.2763,1.2765,0,1.2521,1.2544,1.2631,1.2638,1.2652,1.2691,1.2717,1.2746,1.2759,1.2753,1.277,1.2746,1.2794,1.2738,1.2805,1.2759,1.2776,1.2777,1.2781,1.2785,1.2723,1.282,1.298,1.2996,1.2788,1.2786,1.2784,0,1.2629,1.2681,1.274,1.275,1.2759,1.2787,1.2792,1.2802,1.2821,1.2843,1.2855,1.2882,1.2898,1.2919,1.2903,1.2864,1.2972,1.2915,1.2969,1.297,1.2994,1.2993,1.316,1.3005,1.3004,1.3004,1.3004,0,1.2756,1.2811,1.2789,1.2826,1.2886,1.2862,1.2923,1.2923,1.2932,1.2968,1.2934,1.2968,1.2943,1.2976,1.2963,1.302,1.3027,1.3024,1.302,1.3028,1.3028,1.3039,1.3031,1.3008,1.3007,1.3007,1.3006,0,1.2886,1.2874,1.2936,1.2939,1.2941,1.2986,1.2988,1.3022,1.3015,1.3061,1.3071,1.306,1.3096,1.3081,1.312,1.3111,1.3185,1.3171,1.3181,1.3177,1.3233,1.3228,1.3413,1.3436,1.3265,1.3267,1.3268,0,1.2969,1.301,1.3018,1.304,1.3047,1.3082,1.3102,1.308,1.3101,1.3119,1.3151,1.3184,1.321,1.327,1.3265,1.3295,1.3281,1.3344,1.3285,1.3292,1.3283,1.3281,1.3286,1.3356,1.3358,1.336,1.3361,0,1.3116,1.3108,1.3137,1.3165,1.3189,1.3209,1.3227,1.3246,1.3225,1.3251,1.3288,1.3308,1.3347,1.3381,1.3407,1.3411,1.3383,1.3379,1.3394,1.3402,1.3407,1.3406,1.3214,1.3375,1.3374,1.3373,1.3372,1.3372,1.3226,1.3261,1.3272,1.3306,1.3317,1.3334,1.3366,1.3364,1.3394,1.3425,1.3409,1.3453,1.3464,1.3496,1.3505,1.3538,1.3513,1.3534,1.3539,1.3545,1.3552,1.3401,1.3542,1.3542,1.3542,1.3541,1.3541,0,1.3372,1.3377,1.3409,1.3434,1.3461,1.3432,1.345,1.3474,1.3513,1.3526,1.3552,1.3594,1.3627,1.3625,1.3655,1.3682,1.367,1.3691,1.3689,1.3691,1.3572,1.3557,1.37,1.37,1.37,1.37,1.37,1.37,1.3452,1.351,1.3503,1.3567,1.3571,1.3613,1.3626,1.3642,1.3652,1.3702,1.3729,1.3727,1.3735,1.3765,1.3794,1.3792,1.3805,1.3831,1.3825,1.3715,1.3699,1.3684,1.367,1.3834,1.3834,1.3941,1.3942,1.3943]}]]